Clinton, OK

4:55 AM CDT on September 24, 2017 (GMT -0500)
Clinton Municipal

Weather History for KCLK - January, 2013

Change the Weather History Date:

Sunday, January 13, 2013

  Actual Average (KCSM) Record (KCSM)
Temperature  
Mean Temperature 24 °F -  
Max Temperature 32 °F 46 °F 64 °F (2002)
Min Temperature 17 °F 27 °F 10 °F (1997)
Degree Days  
Heating Degree Days 40    
Moisture  
Dew Point 10 °F    
Average Humidity 56    
Maximum Humidity 74    
Minimum Humidity 30    
Precipitation  
Precipitation 0.00 in - - ()
Sea Level Pressure  
Sea Level Pressure 30.23 in    
Wind  
Wind Speed 12 mph (North)    
Max Wind Speed 20 mph    
Max Gust Speed 24 mph    
Visibility 10 miles    
Events      
Averages and records for this station are not official NWS values.
T = Trace of Precipitation, MM = Missing Value Source: NWS Daily Summary

Daily Weather History Graph

Daily Weather History Graph

Search for Another Location

Airport or City:

Trip Planner

Search our weather history database for the weather conditions in past years. The results will help you decide how hot, cold, wet, or windy it might be!

Date:

Astronomy

Jan. 13, 2013 Rise Set
Actual Time 7:44 AM CST 5:44 PM CST
Civil Twilight 7:17 AM CST 6:12 PM CST
Nautical Twilight 6:45 AM CST 6:43 PM CST
Astronomical Twilight 6:15 AM CST 7:14 PM CST
Moon 8:50 AM CST (1/13) 8:17 PM CST (1/13)
Length of Visible Light 10h 55m
Length of Day
9h 59m
Waxing Crescent, 5% of the Moon is Illuminated
Jan 13
Waxing Crescent
Jan 18
First Quarter
Jan 26
Full
Feb 3
Last Quarter
Feb 10
New

Hourly Weather History & Observations

Time (CST) Temp. Windchill Dew Point Humidity Pressure Visibility Wind Dir Wind Speed Gust Speed Precip Events Conditions
12:15 AM 26.6 °F 16.8 °F 14.0 °F 59% 30.09 in 10.0 mi North 10.4 mph 20.7 mph N/A   Overcast
12:35 AM 26.6 °F 13.8 °F 14.0 °F 59% 30.10 in 10.0 mi North 17.3 mph 20.7 mph N/A   Overcast
12:55 AM 26.6 °F 13.8 °F 12.2 °F 55% 30.10 in 10.0 mi North 17.3 mph 20.7 mph N/A   Overcast
1:15 AM 26.6 °F 15.7 °F 12.2 °F 55% 30.10 in 10.0 mi North 12.7 mph - N/A   Mostly Cloudy
1:35 AM 24.8 °F 13.4 °F 12.2 °F 59% 30.11 in 10.0 mi North 12.7 mph 19.6 mph N/A   Scattered Clouds
2:15 AM 23.0 °F 9.6 °F 12.2 °F 63% 30.10 in 10.0 mi North 16.1 mph - N/A   Clear
2:35 AM 23.0 °F 10.6 °F 12.2 °F 63% 30.11 in 10.0 mi North 13.8 mph 21.9 mph N/A   Clear
3:15 AM 23.0 °F 10.6 °F 10.4 °F 59% 30.14 in 10.0 mi North 13.8 mph 21.9 mph N/A   Clear
3:35 AM 23.0 °F 8.3 °F 10.4 °F 59% 30.14 in 10.0 mi North 19.6 mph 24.2 mph N/A   Clear
3:55 AM 23.0 °F 10.1 °F 10.4 °F 59% 30.14 in 10.0 mi North 15.0 mph - N/A   Clear
4:15 AM 23.0 °F 9.6 °F 10.4 °F 59% 30.15 in 10.0 mi North 16.1 mph 21.9 mph N/A   Clear
4:35 AM 23.0 °F 9.2 °F 10.4 °F 59% 30.15 in 10.0 mi North 17.3 mph - N/A   Clear
5:15 AM 21.2 °F 6.8 °F 10.4 °F 63% 30.16 in 10.0 mi North 17.3 mph - N/A   Clear
5:35 AM 21.2 °F 8.3 °F 10.4 °F 63% 30.17 in 10.0 mi North 13.8 mph - N/A   Clear
5:55 AM 19.4 °F 6.0 °F 10.4 °F 68% 30.17 in 10.0 mi North 13.8 mph - N/A   Clear
6:15 AM 19.4 °F 7.2 °F 10.4 °F 68% 30.18 in 10.0 mi NNW 11.5 mph - N/A   Clear
6:35 AM 19.4 °F 6.6 °F 10.4 °F 68% 30.19 in 10.0 mi North 12.7 mph - N/A   Clear
6:55 AM 19.4 °F 5.5 °F 10.4 °F 68% 30.20 in 10.0 mi North 15.0 mph - N/A   Clear
7:35 AM 19.4 °F 7.2 °F 10.4 °F 68% 30.23 in 10.0 mi NNW 11.5 mph 17.3 mph N/A   Clear
7:55 AM 17.6 °F 3.7 °F 10.4 °F 73% 30.24 in 10.0 mi NNW 13.8 mph - N/A   Clear
8:15 AM 17.6 °F 1.7 °F 8.6 °F 68% 30.26 in 10.0 mi NNW 18.4 mph - N/A   Clear
8:35 AM 19.4 °F 6.0 °F 8.6 °F 63% 30.27 in 10.0 mi NNW 13.8 mph - N/A   Clear
8:55 AM 19.4 °F 4.5 °F 8.6 °F 63% 30.28 in 10.0 mi NNW 17.3 mph 20.7 mph N/A   Clear
9:15 AM 19.4 °F 5.0 °F 8.6 °F 63% 30.29 in 10.0 mi North 16.1 mph 21.9 mph N/A   Clear
9:35 AM 21.2 °F 6.8 °F 8.6 °F 58% 30.30 in 10.0 mi North 17.3 mph 23.0 mph N/A   Clear
9:55 AM 21.2 °F 6.8 °F 8.6 °F 58% 30.31 in 10.0 mi North 17.3 mph - N/A   Clear
10:15 AM 23.0 °F 9.6 °F 8.6 °F 54% 30.30 in 10.0 mi North 16.1 mph 19.6 mph N/A   Clear
10:35 AM 23.0 °F 10.6 °F 8.6 °F 54% 30.30 in 10.0 mi North 13.8 mph 19.6 mph N/A   Clear
10:55 AM 24.8 °F 12.9 °F 8.6 °F 50% 30.30 in 10.0 mi North 13.8 mph 19.6 mph N/A   Clear
11:15 AM 26.6 °F 15.7 °F 8.6 °F 47% 30.30 in 10.0 mi North 12.7 mph - N/A   Clear
11:35 AM 26.6 °F 14.7 °F 6.8 °F 43% 30.29 in 10.0 mi North 15.0 mph 19.6 mph N/A   Clear
11:55 AM 28.4 °F 17.0 °F 5.0 °F 37% 30.27 in 10.0 mi North 15.0 mph - N/A   Clear
12:15 PM 28.4 °F 18.5 °F 5.0 °F 37% 30.27 in 10.0 mi NNE 11.5 mph - N/A   Clear
12:55 PM 30.2 °F 19.8 °F 5.0 °F 34% 30.24 in 10.0 mi North 13.8 mph - N/A   Clear
1:15 PM 30.2 °F 21.9 °F 5.0 °F 34% 30.24 in 10.0 mi NNE 9.2 mph - N/A   Clear
1:35 PM 30.2 °F 20.8 °F 5.0 °F 34% 30.23 in 10.0 mi North 11.5 mph - N/A   Clear
2:35 PM 32.0 °F 24.8 °F 5.0 °F 32% 30.20 in 10.0 mi NNE 8.1 mph - N/A   Clear
2:55 PM 32.0 °F 23.6 °F 5.0 °F 32% 30.21 in 10.0 mi NNE 10.4 mph - N/A   Clear
3:15 PM 32.0 °F 24.2 °F 5.0 °F 32% 30.22 in 10.0 mi NNE 9.2 mph 17.3 mph N/A   Clear
3:35 PM 32.0 °F 23.6 °F 3.2 °F 30% 30.22 in 10.0 mi NNE 10.4 mph - N/A   Clear
3:55 PM 32.0 °F 24.8 °F 5.0 °F 32% 30.22 in 10.0 mi NNE 8.1 mph - N/A   Clear
4:35 PM 32.0 °F 24.2 °F 5.0 °F 32% 30.24 in 10.0 mi NNE 9.2 mph - N/A   Clear
5:15 PM 32.0 °F 24.2 °F 6.8 °F 35% 30.25 in 10.0 mi NE 9.2 mph - N/A   Clear
5:35 PM 30.2 °F 23.4 °F 6.8 °F 37% 30.25 in 10.0 mi NE 6.9 mph - N/A   Clear
5:55 PM 28.4 °F 21.2 °F 10.4 °F 47% 30.26 in 10.0 mi ENE 6.9 mph - N/A   Clear
6:15 PM 26.6 °F 20.0 °F 10.4 °F 51% 30.26 in 10.0 mi NE 5.8 mph - N/A   Clear
6:35 PM 26.6 °F 19.1 °F 10.4 °F 51% 30.26 in 10.0 mi NE 6.9 mph - N/A   Clear
7:15 PM 24.8 °F 16.9 °F 12.2 °F 59% 30.27 in 10.0 mi NE 6.9 mph - N/A   Clear
7:35 PM 23.0 °F 14.7 °F 12.2 °F 63% 30.27 in 10.0 mi NE 6.9 mph - N/A   Clear
7:55 PM 23.0 °F 13.9 °F 12.2 °F 63% 30.26 in 10.0 mi NE 8.1 mph - N/A   Clear
8:15 PM 23.0 °F 13.1 °F 12.2 °F 63% 30.25 in 10.0 mi NE 9.2 mph - N/A   Clear
8:35 PM 21.2 °F 12.6 °F 12.2 °F 68% 30.26 in 10.0 mi NNE 6.9 mph - N/A   Clear
8:55 PM 21.2 °F 12.6 °F 12.2 °F 68% 30.26 in 10.0 mi NNE 6.9 mph - N/A   Clear
9:35 PM 21.2 °F 16.4 °F 12.2 °F 68% 30.27 in 10.0 mi North 3.5 mph - N/A   Clear
9:55 PM 19.4 °F 14.3 °F 12.2 °F 74% 30.27 in 10.0 mi North 3.5 mph - N/A   Clear
10:15 PM 19.4 °F - 12.2 °F 74% 30.29 in 10.0 mi Calm Calm - N/A   Clear
10:35 PM 19.4 °F 12.8 °F 12.2 °F 74% 30.30 in 10.0 mi North 4.6 mph - N/A   Clear
10:55 PM 19.4 °F - 12.2 °F 74% 30.31 in 10.0 mi Calm Calm - N/A   Clear
11:15 PM 19.4 °F 14.3 °F 10.4 °F 68% 30.32 in 10.0 mi NNW 3.5 mph - N/A   Clear
11:35 PM 19.4 °F - 12.2 °F 74% 30.33 in 10.0 mi Calm Calm - N/A   Clear
11:55 PM 19.4 °F 14.3 °F 12.2 °F 74% 30.35 in 10.0 mi North 3.5 mph - N/A   Clear